スコッティ彗星

P/2010 H5 ( Scotti )

English version
Home page
Updated on July 21, 2011

---------------------------------------------------------------------

・ プロフィール

発見日 2010年4月21日
発見光度 20.7等
発見者 J. V. Scotti (Spacewatch)

・ 軌道要素

Epoch 2010 May 4.0 TT = JDT 2455320.5
T 2010 Apr. 17.78407 TT                                 MPC
q   6.0259726            (2000.0)            P               Q
n   0.05161446     Peri.  175.13504     -0.93841125     +0.32997437
a   7.1442247      Node    24.89971     -0.32465326     -0.74055807
e   0.1565253      Incl.   14.08681     -0.11825644     -0.58539786
P  19.1
From 66 observations 2010 Mar. 18-2011 Apr. 11, mean residual 0".3.

・ 光度変化

        m1 = 9.0 + 5 logΔ + 10.0 log r

---------------------------------------------------------------------

軌道要素はM.P.E.C. 2011-G90に掲載されたものです。
光度グラフはComet for Windowsで作成したものです。

---------------------------------------------------------------------

Copyright(C) Seiichi Yoshida (comet@aerith.net). All rights reserved.